This is the latest recevied weather packets stored in our database for station/object SP4FDH-13. If no packets are shown the sender has not sent any weather packets the latest 10 day(s).
| Time | Temp. | Humidity | Pressure | Rain* | Wind** | Luminosity | Snow |
|---|---|---|---|---|---|---|---|
| 1778079735 | 25° C | 64% | 1003 hPa | - | - | - | - |
| 1778079159 | 25.56° C | 67% | 1003 hPa | - | - | - | - |
| 1778078583 | 25.56° C | 65% | 1002.9 hPa | - | - | - | - |
| 1778078008 | 25.56° C | 63% | 1002.9 hPa | - | - | - | - |
| 1778077431 | 25° C | 62% | 1002.8 hPa | - | - | - | - |
| 1778076856 | 25° C | 62% | 1002.8 hPa | - | - | - | - |
| 1778076279 | 25° C | 63% | 1002.8 hPa | - | - | - | - |
| 1778075704 | 25° C | 61% | 1002.8 hPa | - | - | - | - |
| 1778075127 | 25.56° C | 61% | 1002.7 hPa | - | - | - | - |
| 1778074550 | 25.56° C | 64% | 1002.8 hPa | - | - | - | - |
| 1778073973 | 25° C | 62% | 1003 hPa | - | - | - | - |
| 1778073398 | 25° C | 60% | 1002.9 hPa | - | - | - | - |
| 1778072822 | 25.56° C | 60% | 1002.9 hPa | - | - | - | - |
| 1778072246 | 25.56° C | 59% | 1003 hPa | - | - | - | - |
| 1778071668 | 25.56° C | 63% | 1003.2 hPa | - | - | - | - |
| 1778071091 | 25° C | 68% | 1003.3 hPa | - | - | - | - |
| 1778070514 | 23.89° C | 69% | 1003.5 hPa | - | - | - | - |
| 1778069938 | 24.44° C | 68% | 1003.5 hPa | - | - | - | - |
| 1778069361 | 24.44° C | 69% | 1003.6 hPa | - | - | - | - |
| 1778068785 | 23.89° C | 70% | 1003.5 hPa | - | - | - | - |
| 1778068208 | 23.33° C | 71% | 1003.6 hPa | - | - | - | - |
| 1778067631 | 23.33° C | 70% | 1003.6 hPa | - | - | - | - |
| 1778067055 | 23.33° C | 70% | 1003.7 hPa | - | - | - | - |
| 1778066479 | 23.33° C | 71% | 1003.6 hPa | - | - | - | - |
| 1778065902 | 23.33° C | 72% | 1003.7 hPa | - | - | - | - |
* Rain since midnight (hover to see other rain measurements)
** Current wind speed in m/s (hover to see current wind gust speed)